Home   Weather   Columbus   Past weeks

Flag for USA Past Weather in Columbus, Georgia, USA — Yesterday and Last 2 Weeks

Now
77 °F

Clear.


Feels Like: 79 °F
Forecast: 72 / 92 °F
Wind: 7 mph from East

Location: Columbus Metropolitan Airport

Current Time: Aug 31, 2016 at 4:10:04 AM

Latest Report: Aug 31, 2016 at 2:51 AM


Visibility: 10 mi

Pressure: 29.96 "Hg

Humidity: 77%

Dew Point: 69 °F

Location of ColumbusLocation

Past Weather in Columbus — Graph

°F

Columbus Temperature Yesterday

Maximum temperature yesterday: 92 °F (at 5:51 PM)
Minimum temperature yesterday: 73 °F (at 5:51 AM)
Average temperature yesterday: 82 °F

High & Low Weather Summary for the Past Weeks

 TemperatureHumidityPressure
High95 °F (Aug 17, 2:51 PM)97% (Aug 17, 11:51 PM)30.24 "Hg (Aug 17, 11:51 PM)
Low72 °F (Aug 26, 7:51 AM)31% (Aug 27, 4:51 PM)29.88 "Hg (Aug 20, 4:51 PM)
Average82 °F68%30.06 "Hg
* Reported Aug 16 2:51 AM — Aug 31 2:51 AM, Columbus, Weather by CustomWeather, © 2016

Note: Actual official high and low records may vary slightly from our data, if they occured in-between our weather recording intervals... More about our weather records

Advertising

Columbus Weather History for the Previous 24 Hours

Scroll right to see more
 ConditionsComfort  
Time TempWeatherWind HumidityBarometerVisibility
2:51 AM
Wed, Aug 31
77 °FClear.7 mph77%29.96 "Hg10 mi
1:51 AM77 °FClear.7 mph77%29.96 "Hg10 mi
12:51 AM78 °FClear.8 mph71%29.96 "Hg10 mi
11:51 PM
Tue, Aug 30
80 °FClear.9 mph67%29.96 "Hg10 mi
10:51 PM81 °FClear.8 mph65%29.96 "Hg10 mi
9:51 PM83 °FClear.9 mph61%29.95 "Hg10 mi
8:51 PM85 °FSunny.8 mph53%29.93 "Hg10 mi
7:51 PM86 °FScattered clouds.8 mph53%29.92 "Hg10 mi
6:51 PM90 °FScattered clouds.12 mph43%29.90 "Hg10 mi
5:51 PM92 °FPassing clouds.9 mph37%29.91 "Hg10 mi
4:51 PM91 °FScattered clouds.9 mph42%29.93 "Hg10 mi
3:51 PM90 °FScattered clouds.12 mph43%29.95 "Hg10 mi
2:51 PM90 °FPassing clouds.8 mph47%29.98 "Hg10 mi
1:51 PM88 °FScattered clouds.9 mph52%30.01 "Hg10 mi
12:51 PM86 °FScattered clouds.13 mph57%30.03 "Hg10 mi
11:51 AM84 °FBroken clouds.12 mph63%30.05 "Hg10 mi
11:03 AM82 °FBroken clouds.7 mph67%30.06 "Hg10 mi
10:51 AM82 °FPartly sunny.9 mph67%30.05 "Hg10 mi
9:51 AM79 °FSunny.8 mph77%30.05 "Hg10 mi
8:51 AM77 °FSunny.8 mph79%30.04 "Hg10 mi
7:51 AM73 °FClear.7 mph88%30.03 "Hg10 mi
6:51 AM73 °FClear.5 mph88%30.02 "Hg10 mi
5:51 AM73 °FClear.6 mph88%30.01 "Hg10 mi
4:51 AM74 °FClear.7 mph85%30.01 "Hg10 mi
Weather by CustomWeather, © 2016

See weather overviewHow to use our weather pages